CZ-2D DEB

Satellite information

Favourite Embed

Satellite Type and Status

DEBRISIN ORBIT

Key statistics

Satellite CZ-2D DEB at a glance.

Uptime

3320

Days in orbit

Revolutions

≈ 13.9

Per day

Orbit

SSO

Sun Synchronous Orbit

Inclination

98.5

Latest

Satellite identification and parameters

Extended collection of information and parameters for CZ-2D DEB.

Object identification

Identified? True

Debris? True

Object name: CZ-2D DEB

International designator: 2016-068C

Object number (NORAD): 44603

Object ID (CCSDS): 44603

Country: PEOPLES REPUBLIC OF CHINA (PRC)

Current information (Y/N): Y

RCS size: SMALL

Orbital parameters

Period: 103.293 minutes

Inclination: 98.5409 deg

SMA: 7292.458 km

Apoapsis: 1071.22 km

Periapsis: 757.427 km

RAAN: 158.457 deg

Eccentricy: 0.0215149

Argument of periapsis: 32.4423 deg

Mean anomaly: 328.9758 deg

Mean motion: 13.94093326 rev/day

Mean motion (dot): 0.00000759 rev/day2

B* drag term: 0.00049724851 1/REarth

Two-line elements (TLE)

Creation date: Dec. 13, 2025, 4:32 a.m.

Reference frame: TEME

Reference center: EARTH

Epoch: Dec. 12, 2025, 10:09 p.m. UTC

TLE line 0: 0 CZ-2D DEB

TLE line 1: 1 44603U 16068C 25346.92334797 .00000759 00000-0 49725-3 0 9993

TLE line 2: 2 44603 98.5409 158.4570 0215149 32.4423 328.9758 13.94093326948175

Live tracking on map

Real-time ground track for satellite CZ-2D DEB.

In-orbit conjunctions

A list of the most updated potential collisions computed for object CZ-2D DEB.

Target Orbit TCA Probability of collision Miss distance Type
CZ-4C R/B LEO 2025-09-30 09:04:23 0.000198741 860.0 (m) ROCKET BODY
COSMOS 1190 LEO 2025-03-04 19:51:23 0.001357253 51.0 (m) PAYLOAD

Associated space launch

The Yunhai-1 satellite is designed for detecting environmental elements in the atmosphere and ocean, the space environment, disaster prevention and reduction, and scientific experimentation. It is made by the Shanghai Institute of Spaceflight Technology.

CZ-2D DEB was lifted into orbit during the mission ‘Long March 2D | YunHai 1-01’, on board a Long March 2D space rocket.

The launch took place on Nov. 11, 2016, 11:14 p.m. from Launch Area 94 (SLS-2 / 603).

For more information about the launch, click the button.

Launch to space Long March 2D | YunHai 1-01
Long March 2D | YunHai 1-01

Agency: N/A

Status: Launch Successful

Launch date: Nov. 11, 2016, 11:14 p.m. UTC

Rocket: Long March 2D

Launch pad: Launch Area 94 (SLS-2 / 603)

Location: Jiuquan Satellite Launch Center, People's Republic of China

...

Latest news about this satellite

There are no fresh news available about this satellite. Check back as we update our databases every day.


Newsletter sign-up

Weekly statistics, charts and insights to help you stay on top of the space industry.